Location: *
(32.8140°S, 174.6161°E)
Time: 12:19:47
(UTC+00:00)

Lacrosse 4 Rocket - Pass Details

Date: 10 December 2019
Orbit: 540 x 619 km, 68.0° (Epoch: 24 January)

Event Time Altitude Azimuth Distance (km) Brightness Sun altitude
Exits shadow 12:57:19 19° 209° (SSW) 1,500 3.9 -33.3°
Drops below altitude 10° 12:59:21 10° 186° (S) 2,009 4.9 -33.2°
Sets 13:02:03 0° 170° (S) 2,918 6.1 -33.1°
